Regional Weather Roundup
Issued by NWS

Home | Current Version | Previous Version | Text Only | Print | Product List | Glossary On
Versions: 1 2 3 4 5 6 7 8 9 10 11 12 13 14 15 16 17 18 19 20 21 22 23 24 25 26 27 28 29 30 31 32 33 34 35 36 37 38 39 40 41 42 43 44 45 46 47 48 49 50
000
ASUS45 KABQ 251001
RWRNM
NEW MEXICO REGIONAL WEATHER ROUNDUP
NATIONAL WEATHER SERVICE ALBUQUERQUE NM
400 AM MDT MON SEP 25 2017

NOTE: "FAIR" MEANS FEW OR NO CLOUDS BELOW 12,000 FEET AGL WITH NO
       SIGNIFICANT WEATHER OR OBSTRUCTIONS TO VISION.

      THIS PRODUCT IS RELEASED AS TWO VERSIONS.  ONE VERSION NEAR
      THE TOP OF THE HOUR CONTAINING PRELIMINARY DATA FROM ALBUQUERQUE
      AND OTHER STATIONS.  A FINAL VERSION WITH ADDITIONAL DATA IS
      ISSUED ABOUT 10 MINUTES AFTER THE HOUR.

NMZ501-503-504-510>518-251100-
NORTHWEST PLATEAU/NORTHCENTRAL MOUNTAINS

CITY           SKY/WX    TMP DP  RH WIND       PRES   REMARKS
FARMINGTON     FAIR      33  18  53 NE7       30.02S WCI  27
LOS ALAMOS     FAIR      47  23  38 CALM      30.04S
SANTA FE       FAIR      47  27  45 N6        29.99S
TAOS           FAIR      43  31  62 CALM      30.07R
ANGEL FIRE     FAIR      27  25  92 S3        30.10F

$$
NMZ402-403-502-505>509-251100-
WESTCENTRAL MOUNTAINS/SOUTHWEST MOUNTAINS

CITY           SKY/WX    TMP DP  RH WIND       PRES   REMARKS
GALLUP         FAIR      31   9  39 CALM      30.06S
GRANTS         FAIR      37  12  36 N7        30.06S WCI  31
SILVER CITY    FAIR      47  32  54 N9        29.94S

$$
NMZ407-409-411-412-251100-
SOUTHERN DESERTS

CITY           SKY/WX    TMP DP  RH WIND       PRES   REMARKS
DEMING         FAIR      55  31  39 S6        29.89R
LAS CRUCES     FAIR      57  38  48 NW6       29.87S
HOLLOMAN AFB   FAIR      62  46  55 E8        29.86S
ALAMOGORDO     MOCLDY    63  41  45 NE7       29.86S
T OR C         FAIR      63  22  20 N10       29.89S

$$
NMZ519>523-251100-
CENTRAL VALLEYS/CENTRAL HIGHLANDS

CITY           SKY/WX    TMP DP  RH WIND       PRES   REMARKS
ALBUQUERQUE    FAIR      57  23  26 N6        29.97S
DOUBLE EAGLE   CLOUDY    51  23  33 NW5       29.99S
MORIARTY ARPT  FAIR      41  32  70 CALM      29.99F
CLINES CORNERS FAIR      48  21  34 W7        30.02F
BELEN          CLOUDY    56  17  21 N10       29.97S
SOCORRO        FAIR      56  21  24 N9        29.93F

$$
NMZ524>526-539-540-251100-
SOUTHCENTRAL MOUNTAINS

CITY           SKY/WX    TMP DP  RH WIND       PRES   REMARKS
RUIDOSO        NOT AVBL

$$
NMZ527>531-251100-
NORTHEAST HIGHLANDS/NORTHEAST PLAINS

CITY           SKY/WX    TMP DP  RH WIND       PRES   REMARKS
LAS VEGAS      FAIR      44  41  89 SW3       30.01S
RATON          NOT AVBL
CLAYTON        MOCLDY    55  54  96 W5        29.95R

$$
NMZ532>537-251100-
EASTCENTRAL PLAINS

CITY           SKY/WX    TMP DP  RH WIND       PRES   REMARKS
SANTA ROSA     PTSUNNY   62  60  94 SE9       29.90S
TUCUMCARI      FAIR      61  59  93 S8        29.88F
CANNON AFB     NOT AVBL
CLOVIS AIRPORT CLOUDY    66  64  93 S13       29.93S

$$
NMZ028-029-538-251100-
SOUTHEAST PLAINS

CITY           SKY/WX    TMP DP  RH WIND       PRES   REMARKS
ROSWELL        CLOUDY    69  66  90 S9        29.85F
ARTESIA        CLOUDY    68  68 100 S12       29.85S
CARLSBAD       CLOUDY    69  69 100 S9        29.82S
HOBBS          CLOUDY    68  64  88 S17G23    29.87F


$$



USA.gov is the U.S. government's official web portal to all federal, state and local government web resources and services.